Location: Asheville, NC
(35.6000°N, 82.5500°W)
Time: 03:16:58
(UTC-04:00)

Vanguard 3 - Pass Details

Date: 10 March 2018
Orbit: 508 x 3264 km, 33.3° (Epoch: 19 June)

Event Time Altitude Azimuth Distance (km) Brightness Sun altitude
Rises 10:17:19 0° 247° (WSW) 7,184 11.8 38.2°
Reaches altitude 10° 10:22:25 10° 246° (WSW) 6,027 11.5 38.9°
Maximum altitude 10:40:21 72° 166° (SSE) 2,403 10.7 41.5°
Drops below altitude 10° 10:50:59 10° 85° (E) 3,796 11.1 42.9°
Sets 10:53:28 0° 83° (E) 4,488 11.3 43.2°
